Stündliche Wetter Juchitlán

Heute, 5 März, Freitag

Zeit Temperatur Niederschläge Wind Luftdruck Luftfeuchtigkeit
00:00 +19°C° 0 mm 1 m/S 647 mmHg 35%
01:00 +19°C° 0 mm 1 m/S 647 mmHg 31%
02:00 +18°C° 0 mm 1 m/S 646 mmHg 27%
03:00 +18°C° 0 mm 1 m/S 646 mmHg 26%
04:00 +16°C° 0 mm 1 m/S 646 mmHg 25%
05:00 +16°C° 0 mm 2 m/S 646 mmHg 24%
06:00 +18°C° 0 mm 2 m/S 647 mmHg 22%
07:00 +21°C° 0 mm 2 m/S 648 mmHg 20%
08:00 +24°C° 0 mm 2 m/S 649 mmHg 17%
09:00 +27°C° 0 mm 2 m/S 649 mmHg 14%
10:00 +30°C° 0 mm 2 m/S 650 mmHg 10%
11:00 +34°C° 0 mm 1 m/S 651 mmHg 7%
12:00 +35°C° 0 mm 1 m/S 650 mmHg 7%
13:00 +36°C° 0 mm 1 m/S 650 mmHg 6%
14:00 +37°C° 0 mm 1 m/S 649 mmHg 6%
15:00 +36°C° 0 mm 2 m/S 649 mmHg 12%
16:00 +34°C° 0 mm 3 m/S 648 mmHg 18%
17:00 +31°C° 0 mm 3 m/S 647 mmHg 24%
18:00 +28°C° 0 mm 2 m/S 647 mmHg 36%
19:00 +24°C° 0 mm 2 m/S 646 mmHg 48%
20:00 +21°C° 0 mm 1 m/S 646 mmHg 59%
21:00 +20°C° 0 mm 1 m/S 646 mmHg 60%
22:00 +18°C° 0 mm 0 m/S 646 mmHg 60%
23:00 +17°C° 0 mm 0 m/S 646 mmHg 61%

Morgen, 6 März, Samstag

Zeit Temperatur Niederschläge Wind Luftdruck Luftfeuchtigkeit
00:00 +16°C° 0 mm 0 m/S 646 mmHg 60%
01:00 +16°C° 0 mm 0 m/S 645 mmHg 59%
02:00 +15°C° 0 mm 0 m/S 645 mmHg 59%
03:00 +16°C° 0 mm 1 m/S 645 mmHg 56%
04:00 +15°C° 0 mm 1 m/S 645 mmHg 54%
05:00 +15°C° 0 mm 1 m/S 645 mmHg 51%
06:00 +18°C° 0 mm 1 m/S 646 mmHg 44%
07:00 +21°C° 0 mm 1 m/S 647 mmHg 37%
08:00 +23°C° 0 mm 1 m/S 648 mmHg 30%
09:00 +26°C° 0 mm 1 m/S 649 mmHg 25%
10:00 +29°C° 0 mm 1 m/S 650 mmHg 21%
11:00 +32°C° 0 mm 1 m/S 651 mmHg 16%
12:00 +33°C° 0 mm 1 m/S 650 mmHg 15%
13:00 +34°C° 0 mm 1 m/S 650 mmHg 14%
14:00 +36°C° 0 mm 2 m/S 649 mmHg 13%
15:00 +34°C° 0 mm 3 m/S 649 mmHg 19%
16:00 +32°C° 0 mm 4 m/S 648 mmHg 26%
17:00 +30°C° 0 mm 4 m/S 647 mmHg 33%
18:00 +27°C° 0 mm 3 m/S 647 mmHg 47%
19:00 +23°C° 0 mm 2 m/S 647 mmHg 61%
20:00 +20°C° 0 mm 1 m/S 647 mmHg 75%
21:00 +20°C° 0 mm 1 m/S 647 mmHg 78%
22:00 +19°C° 0 mm 1 m/S 647 mmHg 82%
23:00 +18°C° 0 mm 1 m/S 648 mmHg 85%

übermorgen, 7 März, Sonntag

Zeit Temperatur Niederschläge Wind Luftdruck Luftfeuchtigkeit
00:00 +18°C° 0 mm 1 m/S 647 mmHg 87%
01:00 +15°C° 0 mm 0 m/S 647 mmHg 89%
02:00 +15°C° 0 mm 0 m/S 647 mmHg 91%
03:00 +15°C° 0 mm 0 m/S 647 mmHg 92%
04:00 +14°C° 0 mm 0 m/S 647 mmHg 92%
05:00 +14°C° 0 mm 0 m/S 646 mmHg 93%
06:00 +16°C° 0 mm 0 m/S 647 mmHg 83%
07:00 +18°C° 0 mm 0 m/S 649 mmHg 73%
08:00 +20°C° 0 mm 0 m/S 650 mmHg 63%
09:00 +25°C° 0 mm 1 m/S 650 mmHg 49%
10:00 +28°C° 0 mm 1 m/S 651 mmHg 36%
11:00 +31°C° 0 mm 2 m/S 652 mmHg 23%
12:00 +33°C° 0 mm 3 m/S 652 mmHg 20%
13:00 +34°C° 0 mm 3 m/S 651 mmHg 18%
14:00 +35°C° 0 mm 4 m/S 651 mmHg 15%
15:00 +34°C° 0 mm 4 m/S 650 mmHg 18%
16:00 +32°C° 0 mm 4 m/S 650 mmHg 21%
17:00 +30°C° 0 mm 5 m/S 650 mmHg 25%
18:00 +27°C° 0 mm 3 m/S 649 mmHg 35%
19:00 +24°C° 0 mm 2 m/S 649 mmHg 46%
20:00 +21°C° 0 mm 1 m/S 649 mmHg 57%
21:00 +20°C° 0 mm 1 m/S 649 mmHg 60%
22:00 +17°C° 0 mm 0 m/S 649 mmHg 63%
23:00 +17°C° 0 mm 0 m/S 649 mmHg 65%

8 März, Montag

Zeit Temperatur Niederschläge Wind Luftdruck Luftfeuchtigkeit
00:00 +16°C° 0 mm 0 m/S 649 mmHg 67%
01:00 +15°C° 0 mm 0 m/S 648 mmHg 69%
02:00 +15°C° 0 mm 0 m/S 648 mmHg 71%
03:00 +14°C° 0 mm 0 m/S 648 mmHg 72%
04:00 +14°C° 0 mm 0 m/S 648 mmHg 73%
05:00 +14°C° 0 mm 0 m/S 648 mmHg 74%
06:00 +16°C° 0 mm 0 m/S 649 mmHg 64%
07:00 +18°C° 0 mm 0 m/S 650 mmHg 55%
08:00 +21°C° 0 mm 0 m/S 651 mmHg 45%
09:00 +24°C° 0 mm 0 m/S 652 mmHg 35%
10:00 +27°C° 0 mm 0 m/S 653 mmHg 25%
11:00 +33°C° 0 mm 1 m/S 654 mmHg 15%
12:00 +34°C° 0 mm 1 m/S 653 mmHg 13%
13:00 +34°C° 0 mm 1 m/S 652 mmHg 12%
14:00 +36°C° 0 mm 2 m/S 652 mmHg 10%
15:00 +35°C° 0 mm 3 m/S 651 mmHg 12%
16:00 +34°C° 0 mm 4 m/S 651 mmHg 14%
17:00 +32°C° 0 mm 4 m/S 650 mmHg 17%
18:00 +28°C° 0 mm 3 m/S 650 mmHg 24%
19:00 +24°C° 0 mm 2 m/S 649 mmHg 31%
20:00 +21°C° 0 mm 1 m/S 649 mmHg 38%
21:00 +20°C° 0 mm 1 m/S 649 mmHg 39%
22:00 +19°C° 0 mm 1 m/S 649 mmHg 41%
23:00 +19°C° 0 mm 1 m/S 649 mmHg 42%

9 März, Dienstag

Zeit Temperatur Niederschläge Wind Luftdruck Luftfeuchtigkeit
00:00 +18°C° 0 mm 1 m/S 648 mmHg 41%
01:00 +18°C° 0 mm 1 m/S 648 mmHg 39%
02:00 +18°C° 0 mm 1 m/S 648 mmHg 37%
03:00 +16°C° 0 mm 1 m/S 648 mmHg 37%
04:00 +16°C° 0 mm 2 m/S 648 mmHg 36%
05:00 +15°C° 0 mm 2 m/S 648 mmHg 35%
06:00 +18°C° 0 mm 2 m/S 649 mmHg 31%
07:00 +21°C° 0 mm 1 m/S 650 mmHg 26%
08:00 +24°C° 0 mm 1 m/S 651 mmHg 21%
09:00 +27°C° 0 mm 1 m/S 652 mmHg 18%
10:00 +30°C° 0 mm 1 m/S 652 mmHg 14%
11:00 +33°C° 0 mm 1 m/S 653 mmHg 10%
12:00 +34°C° 0 mm 1 m/S 652 mmHg 9%
13:00 +35°C° 0 mm 1 m/S 652 mmHg 8%
14:00 +36°C° 0 mm 1 m/S 651 mmHg 7%
15:00 +36°C° 0 mm 2 m/S 651 mmHg 10%
16:00 +35°C° 0 mm 3 m/S 650 mmHg 13%
17:00 +33°C° 0 mm 4 m/S 650 mmHg 16%
18:00 +29°C° 0 mm 3 m/S 649 mmHg 27%
19:00 +25°C° 0 mm 2 m/S 649 mmHg 38%
20:00 +21°C° 0 mm 1 m/S 648 mmHg 49%
21:00 +20°C° 0 mm 1 m/S 648 mmHg 49%
22:00 +20°C° 0 mm 1 m/S 648 mmHg 50%
23:00 +17°C° 0 mm 0 m/S 648 mmHg 50%

10 März, Mittwoch

Zeit Temperatur Niederschläge Wind Luftdruck Luftfeuchtigkeit
00:00 +19°C° 0 mm 1 m/S 648 mmHg 47%
01:00 +18°C° 0 mm 1 m/S 647 mmHg 45%
02:00 +18°C° 0 mm 1 m/S 647 mmHg 43%
03:00 +16°C° 0 mm 1 m/S 647 mmHg 39%
04:00 +16°C° 0 mm 1 m/S 647 mmHg 35%
05:00 +16°C° 0 mm 1 m/S 647 mmHg 32%
06:00 +19°C° 0 mm 1 m/S 648 mmHg 27%
07:00 +22°C° 0 mm 1 m/S 649 mmHg 22%
08:00 +24°C° 0 mm 1 m/S 650 mmHg 17%
09:00 +27°C° 0 mm 1 m/S 651 mmHg 14%
10:00 +31°C° 0 mm 1 m/S 651 mmHg 10%
11:00 +34°C° 0 mm 1 m/S 652 mmHg 7%
12:00 +34°C° 0 mm 1 m/S 651 mmHg 7%
13:00 +36°C° 0 mm 2 m/S 651 mmHg 7%
14:00 +37°C° 0 mm 2 m/S 650 mmHg 7%
15:00 +35°C° 0 mm 3 m/S 650 mmHg 14%
16:00 +34°C° 0 mm 4 m/S 649 mmHg 20%
17:00 +32°C° 0 mm 5 m/S 649 mmHg 27%
18:00 +27°C° 0 mm 4 m/S 648 mmHg 43%
19:00 +24°C° 0 mm 2 m/S 648 mmHg 59%
20:00 +20°C° 0 mm 1 m/S 648 mmHg 74%
21:00 +20°C° 0 mm 1 m/S 648 mmHg 76%
22:00 +19°C° 0 mm 1 m/S 648 mmHg 77%
23:00 +16°C° 0 mm 0 m/S 648 mmHg 79%
Mehr zeigen

Wir brauchen deine Erlaubnis

Meteoprog und unser Service Anbieter werden persönliche Daten aufbewahren, so wie Cookies, Geräte Bezeichnung oder ähnliche Technologien von deinem Gerät und Prozess, so wie Persönliche Daten Inhalte und Werbungen, genauso wie social Media und den Verkehr zu analysieren.

  • Aufbewahrung und/oder Zugang zu deiner Geräte Informationen.

    Cookies, Geräte Bezeichnung oder andere Informationen, können aufbewahrt oder Zugang zu deinem Gerät erhalten, für den Grund, der oben angegeben wird.

  • Personalisierte Werbung und Inhalte, Messungen, Einblick in das Publikum und Produkt Entwicklung.

    Werbungen und Inhalte können personalisiert werden, basierend auf ein Profil. Mehr Daten können besser personalisierte Werbungen und Inhalte hinzufügen. Werbung und Inhalte können gezeigt und gemessen werden. Einblicke über das Publikum, welche die Werbung gesehen haben und den Inhalt, können abgeleitet werden. So wie Daten können genutzt werden, um es zu verbessern oder die Benutzer Erfahrung zu verbessern das System und die Software.

Wenn du “Ich stimme zu” klickst, erlaubst du uns, die Cookies zu benutzen die Geräte Bezeichnung, den Web oder ähnliche Technologien zu benutzen. Deine Settings, können in deinem Gerät bei deinem Browser geändert werden.

Für den bestimmten Zweck, berechtigten Interessen beruhen darauf, mehr als auf den Inhalt. Du kannst mehr darüber in unseren Privaten und Cookie Politik lesen.